EW7698 Weather Reports


time (UTC)temp
F
wind
direction
speed
knots
gust
knots
rain 1hr
in
rain 24hr
in
rain mn
in
humidity
%
barometer
mb
20260507153838 76 134 0.9 9.6 0.00 0.01 0.01 77 1012.6
20260507153326 76 263 0.9 4.3 0.00 0.01 0.01 78 1012.5
20260507153101 76 221 0.9 4.3 0.00 0.01 0.01 79 1012.3
20260507153006 76 257 0.9 4.3 0.00 0.01 0.01 78 1012.7
20260507153004 76 257 0.0 4.3 0.00 0.01 0.01 79 1012.3
20260507152830 76 355 0.9 4.3 0.00 0.01 0.01 79 1012.3
20260507152333 76 72 1.7 8.7 0.00 0.01 0.01 79 1012.1
20260507151836 76 237 1.7 6.1 0.00 0.01 0.01 80 1011.9
20260507151540 76 222 0.0 5.2 0.00 0.01 0.01 81 1011.9
20260507151513 76 256 0.0 5.2 0.00 0.01 0.01 80 1012.5
20260507151338 76 298 0.0 5.2 0.00 0.01 0.01 81 1012.3
20260507150842 76 38 1.7 7.8 0.00 0.01 0.01 80 1012.6
20260507150326 76 298 0.0 7.0 0.00 0.01 0.01 80 1012.1
20260507150027 75 35 1.7 9.6 0.00 0.01 0.01 80 1011.9
20260507150015 75 25 0.9 10.4 0.00 0.01 0.01 80 1012.3
20260507145830 76 248 1.7 9.6 0.00 0.01 0.01 80 1011.8
20260507145352 75 240 0.9 9.6 0.00 0.01 0.01 80 1011.7
20260507144834 75 107 2.6 9.6 0.00 0.01 0.01 80 1011.6
20260507144542 74 37 0.9 7.8 0.00 0.01 0.01 79 1011.6
20260507144518 74 330 0.9 7.8 0.00 0.01 0.01 79 1012.0
20260507144338 75 217 0.9 7.8 0.00 0.01 0.01 80 1011.5
20260507143841 74 301 1.7 10.4 0.00 0.01 0.01 79 1011.5
20260507143345 74 74 0.9 7.0 0.01 0.01 0.01 79 1011.1
20260507143018 73 261 0.0 8.7 0.01 0.01 0.01 79 1011.2
20260507143016 73 360 0.0 8.7 0.01 0.01 0.01 78 1011.6
20260507142828 73 103 0.9 8.7 0.01 0.01 0.01 79 1011.1
20260507142331 73 244 1.7 5.2 0.01 0.01 0.01 79 1010.9
20260507141834 72 71 0.0 5.2 0.01 0.01 0.01 80 1011.4
20260507141556 72 252 0.0 7.8 0.01 0.01 0.01 80 1011.5
20260507141515 72 347 0.0 7.8 0.01 0.01 0.01 80 1011.9
20260507141337 72 343 0.0 7.8 0.01 0.01 0.01 80 1011.5
20260507140840 73 286 1.7 7.8 0.01 0.01 0.01 82 1011.3
20260507140324 73 316 0.0 0.9 0.01 0.01 0.01 82 1012.5
20260507140043 72 294 0.0 5.2 0.01 0.01 0.01 82 1012.0
20260507140018 72 298 0.0 5.2 0.01 0.01 0.01 82 1012.3
20260507135855 73 267 0.0 5.2 0.01 0.01 0.01 82 1012.0
20260507135337 72 55 0.0 5.2 0.01 0.01 0.01 82 1012.0
20260507134857 72 213 1.7 5.2 0.01 0.01 0.01 82 1011.9
20260507134540 72 264 0.0 1.7 0.01 0.01 0.01 82 1011.9
20260507134518 72 267 0.0 6.1 0.01 0.01 0.01 81 1012.2
20260507134339 72 268 0.0 6.1 0.01 0.01 0.01 82 1012.1
20260507133902 72 51 0.0 6.1 0.00 0.00 0.00 81 1012.7
20260507133342 72 60 0.0 1.7 0.00 0.00 0.00 80 1013.1
20260507133026 72 269 0.0 1.7 0.00 0.00 0.00 79 1013.3
20260507133004 72 265 0.0 1.7 0.00 0.00 0.00 80 1012.9
20260507132827 72 264 0.0 1.7 0.00 0.00 0.00 80 1012.9
20260507132350 72 318 0.0 1.7 0.00 0.00 0.00 79 1013.1
20260507131832 73 297 0.0 2.6 0.00 0.00 0.00 79 1013.1
20260507131526 72 9 0.0 2.6 0.00 0.00 0.00 78 1013.4
20260507131515 72 1 0.0 2.6 0.00 0.00 0.00 78 1014.0
20260507131403 73 345 0.0 2.6 0.00 0.00 0.00 78 1014.0
20260507130826 73 57 0.9 2.6 0.00 0.00 0.00 78 1014.5
20260507130330 73 26 0.0 1.7 0.00 0.00 0.00 78 1014.3
20260507130050 73 299 0.0 1.7 0.00 0.00 0.00 78 1012.9
20260507130009 73 11 0.0 1.7 0.00 0.00 0.00 78 1012.9
20260507125831 73 17 0.0 1.7 0.00 0.00 0.00 78 1012.3
20260507125334 73 17 0.0 1.7 0.00 0.00 0.00 78 1011.2
20260507124837 73 86 0.0 4.3 0.00 0.00 0.00 78 1010.5
20260507124530 72 192 0.0 8.7 0.00 0.00 0.00 78 1010.4
20260507124519 72 243 0.0 8.7 0.00 0.00 0.00 77 1010.9
20260507124341 73 355 0.9 8.7 0.00 0.00 0.00 78 1010.4
20260507123845 72 274 1.7 8.7 0.00 0.00 0.00 77 1009.8
20260507123355 72 255 0.9 10.4 0.00 0.00 0.00 77 1010.1
20260507123030 72 239 0.0 10.4 0.00 0.00 0.00 77 1010.0
20260507123021 72 314 0.0 10.4 0.00 0.00 0.00 77 1010.3
20260507122837 72 161 0.9 10.4 0.00 0.00 0.00 77 1010.0
20260507122340 72 263 2.6 10.4 0.00 0.00 0.00 77 1009.8
20260507121843 71 239 2.6 11.3 0.00 0.00 0.00 76 1009.7
20260507121548 70 268 3.5 12.2 0.00 0.00 0.00 77 1009.8
20260507121524 70 359 2.6 12.2 0.00 0.00 0.00 76 1010.4
20260507121342 71 205 2.6 12.2 0.00 0.00 0.00 77 1009.9
20260507120826 71 266 2.6 12.2 0.00 0.00 0.00 79 1010.1
20260507120330 70 277 0.0 6.1 0.00 0.00 0.00 80 1011.5
20260507120032 70 344 0.0 6.1 0.00 0.00 0.00 80 1012.0
20260507120008 70 185 0.0 6.1 0.00 0.00 0.00 80 1012.4
20260507115835 71 261 0.9 6.1 0.00 0.00 0.00 81 1012.4
20260507115338 71 258 0.0 2.6 0.00 0.00 0.00 81 1012.9
20260507114842 71 91 0.0 0.0 0.00 0.00 0.00 81 1013.2
20260507114516 71 236 0.0 0.0 0.00 0.00 0.00 81 1013.2
20260507114512 71 238 0.0 0.0 0.00 0.00 0.00 81 1013.6
20260507114325 71 236 0.0 0.0 0.00 0.00 0.00 81 1013.2
20260507113828 71 298 0.0 0.0 0.00 0.00 0.00 82 1012.9
20260507113332 72 13 0.0 0.0 0.00 0.00 0.00 82 1012.3
20260507113103 71 13 0.0 0.0 0.00 0.00 0.00 82 1012.3
20260507113034 71 6 0.0 0.0 0.00 0.00 0.00 81 1012.7
20260507113002 71 13 0.0 0.0 0.00 0.00 0.00 82 1012.4
20260507112836 72 13 0.0 0.0 0.00 0.00 0.00 82 1012.5
20260507112339 72 13 0.0 0.0 0.00 0.00 0.00 82 1012.9
20260507111823 72 13 0.0 0.0 0.00 0.00 0.00 82 1013.0
20260507111548 72 13 0.0 0.0 0.00 0.00 0.00 82 1013.0
20260507111520 72 6 0.0 0.0 0.00 0.00 0.00 81 1013.4
20260507111327 72 13 0.0 0.0 0.00 0.00 0.00 82 1013.2
20260507110850 72 13 0.0 0.0 0.00 0.00 0.00 82 1013.3
20260507110352 73 219 0.0 0.0 0.00 0.00 0.00 82 1013.5
20260507110050 72 219 0.0 0.0 0.00 0.00 0.00 81 1013.4
20260507110025 72 114 0.0 0.0 0.00 0.00 0.00 81 1013.8
20260507105833 73 59 0.0 0.0 0.00 0.00 0.00 81 1013.4
20260507105333 73 60 0.0 0.0 0.00 0.00 0.00 81 1013.0
20260507104853 73 60 0.0 0.0 0.00 0.00 0.00 81 1013.2
20260507104552 72 60 0.0 0.0 0.00 0.00 0.00 81 1013.0
20260507104513 72 55 0.0 0.0 0.00 0.00 0.00 80 1013.5
20260507104336 72 60 0.0 0.0 0.00 0.00 0.00 80 1013.3
20260507103840 72 60 0.0 2.6 0.00 0.00 0.00 80 1013.2
20260507103323 72 60 0.0 2.6 0.00 0.00 0.00 80 1013.5
20260507103035 72 54 0.0 0.9 0.00 0.00 0.00 80 1013.7
20260507103020 72 49 0.0 0.9 0.00 0.00 0.00 80 1014.2
20260507102828 72 54 0.0 0.9 0.00 0.00 0.00 80 1013.8
20260507102331 72 55 0.0 2.6 0.00 0.00 0.00 80 1013.9
20260507101834 72 78 0.0 2.6 0.00 0.00 0.00 81 1014.2
20260507101518 72 245 0.0 1.7 0.00 0.00 0.00 81 1014.0
20260507101510 72 248 0.0 1.7 0.00 0.00 0.00 80 1014.4
20260507101357 72 227 0.0 1.7 0.00 0.00 0.00 81 1014.2
20260507100840 72 71 0.0 0.9 0.00 0.00 0.00 81 1014.0
20260507100323 73 71 0.0 0.9 0.00 0.00 0.00 81 1013.8
20260507100047 72 57 0.0 0.9 0.00 0.00 0.00 81 1013.7
20260507100004 72 52 0.0 2.6 0.00 0.00 0.00 80 1014.1
20260507095828 73 57 0.0 2.6 0.00 0.00 0.00 81 1013.8
20260507095328 73 57 0.0 2.6 0.00 0.00 0.00 81 1013.8
20260507094832 74 227 0.0 0.9 0.00 0.00 0.00 81 1014.0
20260507094527 73 227 0.0 0.9 0.00 0.00 0.00 81 1014.1
20260507094505 73 229 0.0 0.9 0.00 0.00 0.00 81 1014.4
20260507094335 74 177 0.0 0.9 0.00 0.00 0.00 81 1014.2
20260507093835 74 73 0.0 0.9 0.00 0.00 0.00 81 1013.9
20260507093336 74 69 0.0 1.7 0.00 0.00 0.00 81 1013.7
20260507093012 73 64 0.0 1.7 0.00 0.00 0.00 81 1013.9
20260507093008 73 69 0.0 1.7 0.00 0.00 0.00 81 1013.5
20260507092840 74 57 0.0 1.7 0.00 0.00 0.00 82 1013.5
20260507092402 74 219 0.0 0.0 0.00 0.00 0.00 82 1013.6
20260507091823 74 225 0.0 0.0 0.00 0.00 0.00 82 1013.5
20260507091528 74 41 0.0 0.0 0.00 0.00 0.00 82 1013.3
20260507091518 74 35 0.0 0.0 0.00 0.00 0.00 81 1013.7
20260507091326 74 41 0.0 0.0 0.00 0.00 0.00 82 1013.4
20260507090829 74 41 0.0 0.0 0.00 0.00 0.00 82 1013.5
20260507090332 74 42 0.0 0.9 0.00 0.00 0.00 82 1012.9
20260507090016 74 42 0.0 0.9 0.00 0.00 0.00 81 1012.8
20260507090005 74 36 0.0 0.9 0.00 0.00 0.00 81 1013.1
20260507085838 74 42 0.0 0.9 0.00 0.00 0.00 82 1012.9
20260507085338 75 22 0.0 0.9 0.00 0.00 0.00 81 1012.6
20260507084842 75 22 0.0 1.7 0.00 0.00 0.00 82 1012.6
20260507084556 74 302 0.0 1.7 0.00 0.00 0.00 82 1012.4
20260507084507 74 286 0.0 1.7 0.00 0.00 0.00 81 1012.8
20260507084326 75 34 0.0 1.7 0.00 0.00 0.00 82 1012.4
20260507083829 75 96 0.0 1.7 0.00 0.00 0.00 82 1012.3
20260507083334 75 234 0.0 4.3 0.00 0.00 0.00 82 1012.3
20260507083040 74 71 0.0 4.3 0.00 0.00 0.00 82 1012.3
20260507083012 74 72 0.0 4.3 0.00 0.00 0.00 81 1012.5
20260507082838 75 279 0.9 4.3 0.00 0.00 0.00 82 1012.3
20260507082340 75 22 0.0 4.3 0.00 0.00 0.00 82 1012.2
20260507081842 75 62 0.9 6.1 0.00 0.00 0.00 82 1012.0
20260507081530 74 63 0.9 6.1 0.00 0.00 0.00 81 1012.1
20260507081526 74 87 0.9 6.1 0.00 0.00 0.00 82 1011.9
20260507081326 75 292 1.7 6.1 0.00 0.00 0.00 82 1011.9
20260507080830 75 236 1.7 4.3 0.00 0.00 0.00 82 1011.9
20260507080353 75 20 0.9 5.2 0.00 0.00 0.00 82 1011.8
20260507080100 74 69 0.0 5.2 0.00 0.00 0.00 82 1011.8
20260507080021 74 257 0.0 5.2 0.00 0.00 0.00 81 1012.1
20260507075835 75 109 0.9 5.2 0.00 0.00 0.00 82 1011.8
20260507075338 75 239 0.0 7.8 0.00 0.00 0.00 82 1011.6
20260507074840 75 63 0.0 7.8 0.00 0.00 0.00 81 1011.5
20260507074534 74 239 0.9 7.0 0.00 0.00 0.00 81 1011.3
20260507074506 74 27 0.9 7.0 0.00 0.00 0.00 81 1011.6
20260507074342 75 229 0.9 7.0 0.00 0.00 0.00 81 1011.3
20260507073841 75 32 0.9 7.8 0.00 0.00 0.00 81 1011.4
20260507073324 75 98 1.7 6.1 0.00 0.00 0.00 81 1011.7
20260507073015 74 89 0.9 6.1 0.00 0.00 0.00 81 1011.8
20260507073009 74 85 0.0 6.1 0.00 0.00 0.00 80 1012.1
20260507072827 75 45 0.9 6.1 0.00 0.00 0.00 81 1011.9
20260507072330 74 5 0.9 5.2 0.00 0.00 0.00 81 1012.1
20260507071833 74 61 0.0 5.2 0.00 0.00 0.00 81 1012.2
20260507071610 74 171 0.0 5.2 0.00 0.00 0.00 81 1012.1
20260507071512 74 91 0.0 5.2 0.00 0.00 0.00 81 1012.5
20260507071356 74 258 0.9 5.2 0.00 0.00 0.00 81 1012.1
20260507070840 75 284 0.9 6.1 0.00 0.00 0.00 81 1012.0
20260507070324 75 75 0.9 6.1 0.00 0.00 0.00 82 1012.0
20260507070022 74 302 0.0 5.2 0.00 0.00 0.00 82 1012.1
20260507065826 75 201 0.9 7.8 0.00 0.00 0.00 82 1012.1
20260507065329 75 292 0.0 7.8 0.00 0.00 0.00 82 1012.1
20260507064832 75 65 0.9 6.1 0.00 0.00 0.00 82 1012.1
20260507064559 74 60 0.0 6.1 0.00 0.00 0.00 82 1012.1
20260507064508 74 44 0.0 6.1 0.00 0.00 0.00 82 1012.1
20260507064355 75 234 0.9 6.1 0.00 0.00 0.00 82 1012.2
20260507063836 75 46 0.0 5.2 0.00 0.00 0.00 82 1012.3
20260507063340 75 260 0.9 5.2 0.00 0.00 0.00 82 1012.4
20260507063025 74 59 0.0 5.2 0.00 0.00 0.00 82 1012.5
20260507062824 75 49 0.0 5.2 0.00 0.00 0.00 82 1012.4
20260507062327 75 174 0.9 7.8 0.00 0.00 0.00 82 1012.6
20260507061831 75 59 1.7 7.8 0.00 0.00 0.00 82 1012.7
20260507061511 74 191 0.0 5.2 0.00 0.00 0.00 82 1012.5
20260507061334 75 292 0.9 5.2 0.00 0.00 0.00 82 1012.7
20260507060838 75 11 1.7 10.4 0.00 0.00 0.00 82 1013.0
20260507060400 75 238 0.0 7.0 0.00 0.00 0.00 82 1012.9
20260507060037 74 197 0.0 7.0 0.00 0.00 0.00 82 1012.9
20260507060018 74 17 0.0 10.4 0.00 0.00 0.00 82 1013.2
20260507055839 75 350 0.0 9.6 0.00 0.00 0.00 82 1012.9
20260507055400 75 264 0.9 9.6 0.00 0.00 0.00 83 1012.9
20260507054843 75 60 0.9 6.1 0.00 0.00 0.00 83 1012.8
20260507054545 74 43 1.7 6.1 0.00 0.00 0.00 83 1012.9
20260507054520 74 207 0.9 6.1 0.00 0.00 0.00 82 1013.2
20260507054344 75 35 1.7 6.1 0.00 0.00 0.00 83 1013.0
20260507053825 75 65 0.9 9.6 0.00 0.00 0.00 83 1013.0
20260507053348 75 243 0.9 9.6 0.00 0.00 0.00 83 1013.3
20260507053115 74 276 0.9 9.6 0.00 0.00 0.00 84 1013.4
20260507053026 74 165 0.9 7.0 0.00 0.00 0.00 83 1013.7
20260507052830 75 236 1.7 7.0 0.00 0.00 0.00 84 1013.4
20260507052332 75 67 0.9 7.0 0.00 0.00 0.00 84 1013.4
20260507051835 75 35 0.9 5.2 0.00 0.00 0.00 84 1013.4
20260507051539 74 217 0.9 6.1 0.00 0.00 0.00 84 1013.3
20260507051510 74 219 0.9 6.1 0.00 0.00 0.00 84 1013.7
20260507051340 75 188 1.7 6.1 0.00 0.00 0.00 84 1013.4
20260507050823 75 81 0.9 8.7 0.00 0.00 0.00 84 1013.8
20260507050327 75 242 0.9 8.7 0.00 0.00 0.00 84 1013.8
20260507050020 74 102 1.7 7.0 0.00 0.00 0.00 85 1013.7
20260507050014 74 1 0.9 7.8 0.00 0.00 0.00 84 1014.0
20260507045832 75 355 1.7 7.0 0.00 0.00 0.00 85 1013.8
20260507045334 75 265 1.7 6.1 0.00 0.00 0.00 85 1013.6
20260507044838 75 250 1.7 8.7 0.00 0.00 0.00 85 1013.7
20260507044520 74 13 0.9 9.6 0.00 0.00 0.00 84 1013.9
20260507044503 74 19 0.9 8.7 0.00 0.00 0.00 85 1013.5
20260507044341 75 11 0.0 6.1 0.00 0.00 0.00 85 1013.6
20260507043825 75 273 0.9 7.8 0.00 0.00 0.00 85 1013.6
20260507043328 75 84 1.7 7.8 0.00 0.00 0.00 85 1013.7
20260507043052 74 232 0.9 7.8 0.00 0.00 0.00 85 1013.7
20260507043027 74 28 1.7 8.7 0.00 0.00 0.00 85 1014.1
20260507042833 75 194 1.7 7.8 0.00 0.00 0.00 85 1013.8
20260507042355 75 252 1.7 7.0 0.00 0.00 0.00 85 1013.9
20260507041835 75 242 0.9 7.0 0.00 0.00 0.00 85 1014.0
20260507041523 74 349 0.9 7.0 0.00 0.00 0.00 85 1014.2
20260507041509 74 153 0.0 7.0 0.00 0.00 0.00 85 1014.0
20260507041339 75 236 1.7 7.0 0.00 0.00 0.00 85 1014.0
20260507040823 75 225 1.7 5.2 0.00 0.00 0.00 85 1014.1
20260507040346 75 228 0.9 5.2 0.00 0.00 0.00 85 1013.9
20260507040049 74 46 0.9 6.1 0.00 0.00 0.00 85 1013.8
20260507040012 74 295 0.9 6.1 0.00 0.00 0.00 85 1014.1
20260507035844 75 248 0.0 6.1 0.00 0.00 0.00 85 1013.8
20260507035328 75 68 0.9 8.7 0.00 0.00 0.00 85 1013.8
20260507034835 75 160 0.0 10.4 0.00 0.00 0.00 85 1013.7
20260507034522 74 188 0.9 10.4 0.00 0.00 0.00 85 1013.9
20260507034323 75 45 1.7 10.4 0.00 0.00 0.00 85 1013.6
20260507033830 75 281 0.9 6.1 0.00 0.00 0.00 85 1013.8
20260507033402 75 150 0.9 5.2 0.00 0.00 0.00 85 1013.9
20260507033042 74 44 0.9 7.0 0.00 0.00 0.00 85 1013.8
20260507033021 74 13 0.9 7.0 0.00 0.00 0.00 85 1014.1
20260507032829 75 339 0.9 7.0 0.00 0.00 0.00 85 1013.9
20260507032335 75 46 1.7 9.6 0.00 0.00 0.00 85 1013.8
20260507031822 75 360 0.9 9.6 0.00 0.00 0.00 85 1013.8
20260507031526 74 86 1.7 8.7 0.00 0.00 0.00 85 1013.9
20260507031522 74 125 0.9 8.7 0.00 0.00 0.00 85 1013.7
20260507031330 75 192 0.9 6.1 0.00 0.00 0.00 85 1013.8
20260507030837 75 253 1.7 8.7 0.00 0.00 0.00 85 1013.7
20260507030328 75 242 0.9 8.7 0.00 0.00 0.00 85 1013.7
20260507030024 74 161 1.7 8.7 0.00 0.00 0.00 85 1013.9
20260507030010 74 192 1.7 8.7 0.00 0.00 0.00 85 1013.6
20260507025837 75 250 1.7 7.8 0.00 0.00 0.00 85 1013.6
20260507025323 75 269 1.7 11.3 0.00 0.00 0.00 85 1013.5
20260507024830 75 63 1.7 11.3 0.00 0.00 0.00 85 1013.2
20260507024603 74 229 0.9 9.6 0.00 0.00 0.00 85 1013.1
20260507024515 74 255 0.9 9.6 0.00 0.00 0.00 84 1013.5
20260507024337 75 12 0.9 9.6 0.00 0.00 0.00 85 1013.2
20260507023824 75 234 1.7 9.6 0.00 0.00 0.00 85 1013.3
20260507023331 75 42 0.9 8.7 0.00 0.00 0.00 85 1013.3
20260507023039 74 304 1.7 8.7 0.00 0.00 0.00 85 1013.4
20260507023016 74 188 0.9 8.7 0.00 0.00 0.00 84 1013.6
20260507022839 75 209 3.5 8.7 0.00 0.00 0.00 85 1013.3
20260507022325 75 86 1.7 11.3 0.00 0.00 0.00 85 1013.2
20260507021831 75 221 1.7 11.3 0.00 0.00 0.00 84 1013.1
20260507021528 74 277 0.9 9.6 0.00 0.00 0.00 84 1013.2
20260507021523 74 274 0.9 9.6 0.00 0.00 0.00 84 1013.6
20260507021338 75 282 1.7 9.6 0.00 0.00 0.00 84 1013.3
20260507020825 75 284 0.0 7.0 0.00 0.00 0.00 84 1013.5
20260507020333 75 76 0.0 5.2 0.00 0.00 0.00 84 1013.6
20260507020043 75 307 0.9 8.7 0.00 0.00 0.00 83 1014.0
20260507020019 74 329 0.0 8.7 0.00 0.00 0.00 84 1013.6
20260507015842 75 232 0.0 8.7 0.00 0.00 0.00 84 1013.7
20260507015329 75 282 1.7 8.7 0.00 0.00 0.00 84 1013.6
20260507014836 75 186 1.7 7.0 0.00 0.00 0.00 84 1013.7
20260507014614 75 250 0.0 6.1 0.00 0.00 0.00 84 1013.7
20260507014508 74 328 0.9 6.1 0.00 0.00 0.00 83 1014.0
20260507014341 75 274 0.9 6.1 0.00 0.00 0.00 84 1013.8
20260507013849 75 53 0.0 6.1 0.00 0.00 0.00 83 1014.0
20260507013336 75 268 0.0 6.1 0.00 0.00 0.00 83 1013.8
20260507013020 74 274 0.0 7.8 0.00 0.00 0.00 83 1014.0
20260507012825 75 234 0.9 7.8 0.00 0.00 0.00 83 1013.8
20260507012332 75 253 0.9 7.8 0.00 0.00 0.00 83 1014.1
20260507011840 75 234 0.9 7.0 0.00 0.00 0.00 83 1014.2
20260507011507 74 227 0.0 7.0 0.00 0.00 0.00 83 1014.2
20260507011328 75 78 0.9 7.0 0.00 0.00 0.00 83 1014.2
20260507010835 75 226 0.9 7.0 0.00 0.00 0.00 83 1014.2
20260507010323 75 277 0.0 6.1 0.00 0.00 0.00 82 1014.1
20260507010005 74 224 0.0 6.1 0.00 0.00 0.00 82 1014.2
20260507005832 75 244 0.9 6.1 0.00 0.00 0.00 82 1013.9
20260507005337 75 276 0.0 5.2 0.00 0.00 0.00 83 1014.0
20260507004844 75 73 0.9 5.2 0.00 0.00 0.00 82 1014.0
20260507004514 74 261 0.0 7.8 0.00 0.00 0.00 82 1013.9
20260507004509 74 264 0.0 7.8 0.00 0.00 0.00 82 1014.2
20260507004331 75 321 0.9 7.8 0.00 0.00 0.00 82 1014.0
20260507003839 75 51 0.0 5.2 0.00 0.00 0.00 82 1014.1
20260507003326 75 345 0.9 5.2 0.00 0.00 0.00 82 1014.2
20260507003102 75 244 0.0 7.0 0.00 0.00 0.00 82 1014.1
20260507003012 75 62 0.0 7.0 0.00 0.00 0.00 82 1014.4
20260507003002 75 67 0.0 7.0 0.00 0.00 0.00 82 1014.1
20260507002835 75 91 0.0 7.0 0.00 0.00 0.00 82 1014.0
20260507002322 75 216 0.9 6.1 0.00 0.00 0.00 82 1013.9
20260507001829 75 63 0.9 7.0 0.00 0.00 0.00 82 1013.7
20260507001550 75 250 0.0 7.0 0.00 0.00 0.00 82 1013.7
20260507001544 75 227 0.0 7.0 0.00 0.00 0.00 81 1014.1
20260507001337 75 52 0.0 7.0 0.00 0.00 0.00 82 1013.7
20260507000845 75 64 0.9 4.3 0.00 0.00 0.00 82 1013.6
20260507000352 75 65 0.9 9.6 0.00 0.00 0.00 81 1013.7
20260507000013 75 290 1.7 9.6 0.00 0.00 0.00 82 1013.5
20260506235839 75 258 1.7 5.2 0.00 0.00 0.00 81 1013.6
20260506235326 76 280 0.0 6.1 0.00 0.00 0.00 81 1013.5
20260506234834 76 39 0.9 6.1 0.00 0.00 0.00 81 1013.8
20260506234553 75 238 0.0 6.1 0.00 0.00 0.00 81 1013.6
20260506234342 76 159 1.7 6.1 0.00 0.00 0.00 81 1013.6
20260506233849 76 306 0.0 7.0 0.00 0.00 0.00 81 1013.7
20260506233429 75 263 1.7 6.1 0.00 0.00 0.00 80 1013.9
20260506233336 76 242 0.9 7.0 0.00 0.00 0.00 81 1013.5
20260506233020 75 246 0.9 6.1 0.00 0.00 0.00 81 1013.5
20260506232825 76 333 0.9 6.1 0.00 0.00 0.00 81 1013.5
20260506232331 76 65 0.9 7.8 0.00 0.00 0.00 81 1013.6
20260506231821 76 265 0.9 6.1 0.00 0.00 0.00 80 1013.7
20260506231810 75 288 0.0 6.1 0.00 0.00 0.00 80 1013.9
20260506231507 76 278 0.0 6.1 0.00 0.00 0.00 80 1013.6
20260506231330 76 240 0.9 6.1 0.00 0.00 0.00 80 1013.5
20260506230836 76 5 0.9 8.7 0.00 0.00 0.00 80 1013.5
20260506230343 76 235 0.9 8.7 0.00 0.00 0.00 80 1013.5
20260506230036 76 290 0.9 8.7 0.00 0.00 0.00 80 1013.3
20260506225853 76 200 1.7 8.7 0.00 0.00 0.00 80 1013.3
20260506224829 77 110 1.7 8.7 0.00 0.00 0.00 80 1013.5
20260506224539 76 239 0.0 4.3 0.00 0.00 0.00 80 1013.5
20260506224505 76 262 0.0 4.3 0.00 0.00 0.00 80 1013.9
20260506224334 77 159 0.0 4.3 0.00 0.00 0.00 80 1013.6
20260506223826 77 26 0.9 9.6 0.00 0.00 0.00 80 1013.9
20260506223334 77 202 0.9 9.6 0.00 0.00 0.00 80 1014.0
20260506223027 76 277 0.0 10.4 0.00 0.00 0.00 80 1014.0
20260506223006 76 251 0.0 10.4 0.00 0.00 0.00 80 1014.3
20260506222823 77 246 0.9 10.4 0.00 0.00 0.00 80 1014.0
20260506222355 77 187 0.9 10.4 0.00 0.00 0.00 80 1014.0
20260506221822 77 228 0.9 7.8 0.00 0.00 0.00 80 1013.8
20260506221557 76 252 0.0 6.1 0.00 0.00 0.00 80 1013.7
20260506221508 76 281 0.9 6.1 0.00 0.00 0.00 80 1014.2
20260506221330 77 330 0.9 6.1 0.00 0.00 0.00 80 1013.8
20260506220838 77 234 0.9 6.1 0.00 0.00 0.00 80 1013.9
20260506220345 77 202 0.9 7.0 0.00 0.00 0.00 80 1013.7
20260506220031 77 249 0.9 7.0 0.00 0.00 0.00 80 1013.6
20260506220012 77 207 0.9 7.0 0.00 0.00 0.00 79 1014.0
20260506215830 77 238 0.9 6.1 0.00 0.00 0.00 80 1013.7
20260506215338 77 217 0.0 5.2 0.00 0.00 0.00 80 1013.7
20260506214825 77 329 0.0 6.1 0.00 0.00 0.00 79 1013.7
20260506214519 77 65 2.6 7.8 0.00 0.00 0.00 79 1014.1
20260506214509 77 70 2.6 7.8 0.00 0.00 0.00 79 1013.7
20260506214333 78 218 2.6 7.8 0.00 0.00 0.00 79 1013.7
20260506213822 78 42 1.7 8.7 0.00 0.00 0.00 79 1013.8
20260506213327 78 266 0.9 8.7 0.00 0.00 0.00 79 1013.8
20260506213055 77 269 0.9 8.7 0.00 0.00 0.00 79 1013.9
20260506213003 77 257 0.9 7.8 0.00 0.00 0.00 78 1014.4
20260506212836 78 254 1.7 7.8 0.00 0.00 0.00 79 1014.0
20260506212343 78 206 0.0 7.0 0.00 0.00 0.00 78 1014.0
20260506211848 78 153 0.9 11.3 0.00 0.00 0.00 78 1014.2
20260506211519 78 61 1.7 11.3 0.00 0.00 0.00 77 1014.1
20260506211507 78 327 0.9 11.3 0.00 0.00 0.00 77 1014.4
20260506211335 78 323 2.6 11.3 0.00 0.00 0.00 78 1014.1
20260506210823 79 54 0.9 5.2 0.00 0.00 0.00 77 1014.2
20260506210329 79 59 0.9 6.1 0.00 0.00 0.00 77 1014.3
20260506210022 78 162 0.0 9.6 0.00 0.00 0.00 76 1014.6
20260506210011 78 163 0.0 9.6 0.00 0.00 0.00 77 1014.2
20260506205838 79 221 0.0 9.6 0.00 0.00 0.00 77 1014.2
20260506205323 79 319 1.7 9.6 0.00 0.00 0.00 76 1014.3
20260506204829 80 106 0.9 7.0 0.00 0.00 0.00 76 1014.3
20260506204554 79 55 1.7 7.0 0.00 0.00 0.00 75 1014.3
20260506204516 79 260 0.9 7.0 0.00 0.00 0.00 74 1014.7
20260506204335 80 23 0.9 7.0 0.00 0.00 0.00 75 1014.3
20260506203842 80 28 0.9 8.7 0.00 0.00 0.00 75 1014.4
20260506203325 81 103 0.9 8.7 0.00 0.00 0.00 75 1014.3
20260506203020 80 38 0.9 7.8 0.00 0.00 0.00 75 1014.2
20260506202833 81 215 2.6 7.8 0.00 0.00 0.00 74 1014.3
20260506202338 81 264 1.7 8.7 0.00 0.00 0.00 75 1014.4
20260506201825 81 232 0.0 8.7 0.00 0.00 0.00 74 1014.5
20260506201557 80 209 1.7 8.7 0.00 0.00 0.00 74 1014.5
20260506201504 80 120 1.7 8.7 0.00 0.00 0.00 73 1014.9
20260506201331 81 233 2.6 8.7 0.00 0.00 0.00 74 1014.6
20260506200838 81 234 1.7 7.8 0.00 0.00 0.00 74 1014.7
20260506200325 81 105 2.6 7.8 0.00 0.00 0.00 74 1014.6
20260506200049 81 222 0.9 7.8 0.00 0.00 0.00 74 1014.7
20260506200010 81 214 0.9 7.8 0.00 0.00 0.00 74 1015.1
20260506195900 81 217 1.7 7.8 0.00 0.00 0.00 74 1014.7
20260506195347 81 349 1.7 7.0 0.00 0.00 0.00 74 1014.7
20260506194833 81 115 0.9 11.3 0.00 0.00 0.00 74 1014.7
20260506194545 80 234 3.5 11.3 0.00 0.00 0.00 73 1014.6
20260506194511 81 83 3.5 11.3 0.00 0.00 0.00 73 1015.0
20260506194341 81 246 3.5 11.3 0.00 0.00 0.00 73 1014.6
20260506193844 82 177 2.6 7.8 0.00 0.00 0.00 73 1014.7
20260506193347 82 293 0.9 4.3 0.00 0.00 0.00 74 1014.8
20260506193025 81 61 0.9 5.2 0.00 0.00 0.00 73 1015.3
20260506193013 81 66 0.9 6.1 0.00 0.00 0.00 73 1014.9
20260506192859 82 98 1.7 6.1 0.00 0.00 0.00 74 1014.9
20260506192324 82 190 0.9 6.1 0.00 0.00 0.00 73 1015.0
20260506191832 82 50 1.7 6.1 0.00 0.00 0.00 73 1015.0
20260506191534 82 59 0.9 7.0 0.00 0.00 0.00 73 1015.0
20260506191527 82 41 0.9 7.8 0.00 0.00 0.00 72 1015.4
20260506191339 82 179 1.7 7.0 0.00 0.00 0.00 73 1015.1
20260506190827 82 70 0.9 7.0 0.00 0.00 0.00 73 1015.2
20260506190401 82 67 0.9 7.0 0.00 0.00 0.00 72 1015.2
20260506190011 82 55 1.7 7.0 0.00 0.00 0.00 71 1015.6
20260506190004 82 60 1.7 7.0 0.00 0.00 0.00 72 1015.2
20260506185829 82 75 1.7 7.0 0.00 0.00 0.00 72 1015.3
20260506185333 82 185 1.7 8.7 0.00 0.00 0.00 73 1015.3
20260506184821 82 251 0.0 8.7 0.00 0.00 0.00 74 1015.4
20260506184550 81 205 3.5 12.2 0.00 0.00 0.00 73 1015.4
20260506184511 81 233 3.5 12.2 0.00 0.00 0.00 72 1015.8
20260506184328 82 136 2.6 12.2 0.00 0.00 0.00 74 1015.6
20260506183836 81 65 3.5 12.2 0.00 0.00 0.00 73 1015.5
20260506183321 81 228 3.5 10.4 0.00 0.00 0.00 73 1015.5
20260506183032 81 227 2.6 10.4 0.00 0.00 0.00 72 1015.6
20260506183017 81 236 2.6 10.4 0.00 0.00 0.00 72 1015.9
20260506182855 82 248 2.6 10.4 0.00 0.00 0.00 72 1015.5
20260506182339 82 142 0.9 7.8 0.00 0.00 0.00 72 1015.6
20260506181825 82 44 0.0 8.7 0.00 0.00 0.00 75 1015.6
20260506181601 81 257 1.7 8.7 0.00 0.00 0.00 74 1015.6
20260506181534 81 193 0.9 8.7 0.00 0.00 0.00 73 1016.0
20260506181332 81 38 2.6 8.7 0.00 0.00 0.00 73 1015.6
20260506180838 81 267 0.9 6.1 0.00 0.00 0.00 74 1015.7
20260506180325 81 232 1.7 8.7 0.00 0.00 0.00 74 1015.7
20260506180058 80 339 1.7 10.4 0.00 0.00 0.00 75 1015.8
20260506180027 80 265 1.7 10.4 0.00 0.00 0.00 73 1016.2
20260506175834 80 240 1.7 10.4 0.00 0.00 0.00 74 1016.0
20260506175340 81 111 3.5 10.4 0.00 0.00 0.00 74 1015.9
20260506174827 80 223 2.6 10.4 0.00 0.00 0.00 74 1016.0
20260506174528 80 266 0.9 7.0 0.00 0.00 0.00 75 1016.1
20260506174508 80 286 1.7 7.0 0.00 0.00 0.00 74 1016.5
20260506174333 80 286 0.9 7.0 0.00 0.00 0.00 75 1016.2
20260506173821 80 240 2.6 7.0 0.00 0.00 0.00 74 1016.3
20260506173328 80 316 1.7 7.8 0.00 0.00 0.00 75 1016.4
20260506173017 79 26 0.9 7.8 0.00 0.00 0.00 76 1016.4
20260506173012 79 6 0.9 8.7 0.00 0.00 0.00 75 1016.8
20260506172834 79 242 1.7 8.7 0.00 0.00 0.00 76 1016.4
20260506172324 79 112 1.7 8.7 0.00 0.00 0.00 76 1016.6
20260506171846 79 62 2.6 8.7 0.00 0.00 0.00 75 1016.6
20260506171545 78 238 0.0 7.8 0.00 0.00 0.00 76 1016.6
20260506171519 78 210 0.0 7.8 0.00 0.00 0.00 75 1017.0
20260506171357 79 63 1.7 7.8 0.00 0.00 0.00 76 1016.5
20260506170822 79 103 0.9 7.0 0.00 0.00 0.00 77 1016.6
20260506170329 78 236 0.9 6.1 0.00 0.00 0.00 77 1016.5
20260506170008 78 220 0.0 7.0 0.00 0.00 0.00 77 1016.5
20260506170004 78 216 0.0 7.0 0.00 0.00 0.00 76 1017.0
20260506165822 78 244 1.7 7.0 0.00 0.00 0.00 77 1016.6
20260506165329 78 236 1.7 7.0 0.00 0.00 0.00 76 1016.7
20260506164836 78 248 0.9 10.4 0.00 0.00 0.00 76 1016.9
20260506164551 78 40 1.7 10.4 0.00 0.00 0.00 76 1016.7
20260506164524 78 91 1.7 10.4 0.00 0.00 0.00 76 1017.1
20260506164340 78 81 0.9 10.4 0.00 0.00 0.00 76 1016.7
20260506163827 78 193 0.9 7.8 0.00 0.00 0.00 76 1016.7
20260506163334 79 247 2.6 7.8 0.00 0.00 0.00 75 1016.8
20260506163039 78 262 0.0 7.8 0.00 0.00 0.00 76 1016.7
20260506163013 78 224 0.0 8.7 0.00 0.00 0.00 75 1017.1
20260506162822 79 280 0.0 7.8 0.00 0.00 0.00 75 1016.7
20260506162328 79 236 2.6 7.8 0.00 0.00 0.00 75 1016.7
20260506161835 79 122 1.7 10.4 0.00 0.00 0.00 75 1016.8
20260506161523 79 67 1.7 10.4 0.00 0.00 0.00 75 1016.9
20260506161519 79 159 1.7 10.4 0.00 0.00 0.00 74 1017.4
20260506161322 79 234 1.7 10.4 0.00 0.00 0.00 74 1017.0
20260506160830 79 74 0.9 7.0 0.00 0.00 0.00 75 1016.9
20260506160334 79 248 0.9 7.0 0.00 0.00 0.00 74 1016.9
20260506160013 79 62 0.0 6.1 0.00 0.00 0.00 73 1016.8
20260506160004 79 70 0.0 6.1 0.00 0.00 0.00 73 1017.3
20260506155841 79 275 1.7 7.0 0.00 0.00 0.00 73 1016.9
20260506155328 79 238 0.0 8.7 0.00 0.00 0.00 73 1017.0
20260506154835 80 311 2.6 7.8 0.00 0.00 0.00 72 1017.1
20260506154555 79 94 2.6 7.8 0.00 0.00 0.00 72 1017.0
20260506154503 80 49 1.7 7.8 0.00 0.00 0.00 72 1017.5
20260506154323 80 151 2.6 7.8 0.00 0.00 0.00 72 1017.0